Weather History for Wittering, United Kingdom

Change the Weather History Date:

Friday, January 4, 2013

  Actual Average Record
Temperature  
Mean Temperature 47 °F -  
Max Temperature 50 °F 42 °F 53 °F (1999)
Min Temperature 44 °F 34 °F 21 °F (2002)
Degree Days  
Heating Degree Days 18    
Moisture  
Dew Point 45 °F    
Average Humidity 88    
Maximum Humidity 100    
Minimum Humidity 74    
Precipitation  
Precipitation 0.00 in - - ()
Sea Level Pressure  
Sea Level Pressure 30.56 in    
Wind  
Wind Speed 13 mph ()    
Max Wind Speed 21 mph    
Max Gust Speed -    
Visibility 7.0 miles    
Events      
Averages and records for this station are not official NWS values.
T = Trace of Precipitation, MM = Missing Value Source: Averaged Metar Reports

Daily Weather History Graph

Daily Weather History Graph

Search for Another Location

Airport:

Trip Planner

Search our weather history database for the weather conditions in past years. The results will help you decide how hot, cold, wet, or windy it might be!

Date:

Astronomy

Jan. 04, 2013 Rise Set
Actual Time 8:12 AM GMT 4:01 PM GMT
Civil Twilight 7:31 AM GMT 4:42 PM GMT
Nautical Twilight 6:47 AM GMT 5:26 PM GMT
Astronomical Twilight 6:05 AM GMT 6:08 PM GMT
Moon No Moon Rise 10:47 AM GMT (1/4)
Length of Visible Light 9h 11m
Length of Day
7h 49m
Waning Gibbous, 57% of the Moon is Illuminated
Jan 4
Waning Gibbous
Jan 5
Last Quarter
Jan 11
New
Jan 18
First Quarter
Jan 27
Full

Hourly Weather History & Observations

Time (GMT) Temp. Windchill Dew Point Humidity Pressure Visibility Wind Dir Wind Speed Gust Speed Precip Events Conditions
12:50 AM 48.2 °F - 46.4 °F 93% 30.54 in 6.2 mi West 20.7 mph - N/A   Mostly Cloudy
1:50 AM 48.2 °F - 46.4 °F 93% 30.54 in 6.2 mi West 19.6 mph - N/A   Partly Cloudy
2:50 AM 49 °F - 46 °F 86% 30.57 in 28 mi West 17.3 mph - -   Mostly Cloudy
2:50 AM 50.0 °F - 46.4 °F 87% 30.54 in 6.2 mi West 17.3 mph - N/A   Mostly Cloudy
3:50 AM 48.2 °F - 44.6 °F 87% 30.54 in 6.2 mi WSW 15.0 mph - N/A   Unknown
4:50 AM 48.2 °F - 44.6 °F 87% 30.54 in 6.2 mi WSW 15.0 mph - N/A   Unknown
5:50 AM 49 °F - 46 °F 84% 30.56 in 31 mi West 19.6 mph - -  
5:50 AM 48.2 °F - 46.4 °F 93% 30.54 in 6.2 mi West 19.6 mph - N/A   Mostly Cloudy
6:50 AM 48.2 °F - 46.4 °F 93% 30.54 in 6.2 mi West 17.3 mph - N/A   Overcast
7:50 AM 48.2 °F - 44.6 °F 87% 30.57 in 6.2 mi West 12.7 mph - N/A   Overcast
8:50 AM 48 °F - 45 °F 84% 30.60 in 31 mi West 15.0 mph - -   Overcast
8:50 AM 48.2 °F - 44.6 °F 87% 30.60 in 6.2 mi West 15.0 mph - N/A   Overcast
9:50 AM 48.2 °F - 44.6 °F 87% 30.60 in 6.2 mi West 15.0 mph - N/A   Overcast
10:50 AM 48.2 °F - 42.8 °F 82% 30.60 in 6.2 mi West 11.5 mph - N/A   Partly Cloudy
11:50 AM 49 °F - 44 °F 76% 30.60 in 16 mi West 12.7 mph - -  
11:50 AM 50.0 °F - 44.6 °F 82% 30.57 in 6.2 mi West 12.7 mph - N/A   Unknown
12:50 PM 50.0 °F - 44.6 °F 82% 30.57 in 6.2 mi West 16.1 mph - N/A   Unknown
1:50 PM 50.0 °F - 42.8 °F 76% 30.57 in 6.2 mi WSW 10.4 mph - N/A   Unknown
2:50 PM 50 °F - 44 °F 74% 30.58 in 17 mi WSW 8.1 mph - -  
2:50 PM 50.0 °F - 44.6 °F 82% 30.57 in 6.2 mi WSW 8.1 mph - N/A   Unknown
3:50 PM 48.2 °F - 42.8 °F 82% 30.57 in 6.2 mi WSW 9.2 mph - N/A   Unknown
4:50 PM 44.6 °F 40.2 °F 42.8 °F 93% 30.57 in 6.2 mi West 8.1 mph - N/A   Unknown
5:50 PM 44 °F - 42 °F 92% 30.57 in 19 mi WSW 8.1 mph - -  
5:50 PM 44.6 °F 40.2 °F 42.8 °F 93% 30.54 in 6.2 mi WSW 8.1 mph - N/A   Unknown
6:50 PM 44.6 °F 39.7 °F 42.8 °F 93% 30.57 in 6.2 mi West 9.2 mph - N/A   Unknown
7:50 PM 46.4 °F 42.4 °F 44.6 °F 93% 30.57 in 6.2 mi SW 8.1 mph - N/A   Unknown
8:50 PM 45 °F - 44 °F 93% 30.58 in 6 mi West 8.1 mph - -   Mist
8:50 PM 44.6 °F 40.2 °F 44.6 °F 100% 30.57 in 5.6 mi West 8.1 mph - N/A   Partly Cloudy
9:50 PM 46.4 °F 40.7 °F 44.6 °F 93% 30.54 in 5.0 mi West 12.7 mph - N/A   Mostly Cloudy
10:50 PM 46.4 °F 41.1 °F 44.6 °F 93% 30.54 in 4.3 mi WSW 11.5 mph - N/A   Overcast
11:50 PM 46 °F - 45 °F 93% 30.57 in 3 mi West 12.7 mph - -   Mist
11:50 PM 46.4 °F 40.7 °F 44.6 °F 93% 30.54 in 3.1 mi West 12.7 mph - N/A   Overcast